Time,TemperatureF,DewpointF,PressureIn,WindDirection,WindDirectionDegrees,WindSpeedMPH,WindSpeedGustMPH,Humidity,HourlyPrecipIn,Conditions,Clouds,dailyrainin,SoftwareType,DateUTC
2013-08-01 00:01:00,77.5,72.7,30.03,ENE,77,0.0,3.0,85,0.00,,,0.01,meteohub,2013-08-01 04:01:00,
2013-08-01 00:02:00,77.5,72.7,30.03,ENE,77,0.0,3.0,85,0.00,,,0.01,meteohub,2013-08-01 04:02:00,
2013-08-01 00:04:00,77.5,72.7,30.03,ENE,77,0.0,3.0,85,0.00,,,0.01,meteohub,2013-08-01 04:04:00,
2013-08-01 00:10:00,77.5,72.7,30.03,ENE,77,1.0,3.0,85,0.00,,,0.00,meteohub,2013-08-01 04:10:00,
2013-08-01 00:16:00,77.4,72.5,30.03,ENE,77,1.0,4.0,85,0.00,,,0.00,meteohub,2013-08-01 04:16:00,
2013-08-01 00:22:00,77.4,72.5,30.03,ENE,77,0.0,4.0,85,0.00,,,0.00,meteohub,2013-08-01 04:22:00,
2013-08-01 00:28:00,77.5,72.7,30.02,ENE,77,0.0,4.0,85,0.00,,,0.00,meteohub,2013-08-01 04:28:00,
2013-08-01 00:34:00,77.7,72.9,30.02,ENE,77,0.0,3.0,85,0.00,,,0.00,meteohub,2013-08-01 04:34:00,
2013-08-01 00:41:00,78.1,73.2,30.02,ENE,77,0.0,2.0,85,0.00,,,0.00,meteohub,2013-08-01 04:41:00,
2013-08-01 00:44:00,78.1,73.2,30.02,ENE,77,1.0,2.0,85,0.00,,,0.00,meteohub,2013-08-01 04:44:00,
2013-08-01 00:50:00,78.1,73.2,30.02,ENE,77,0.0,2.0,85,0.00,,,0.00,meteohub,2013-08-01 04:50:00,
2013-08-01 00:56:00,78.1,73.6,30.02,ENE,77,0.0,2.0,86,0.00,,,0.00,meteohub,2013-08-01 04:56:00,
2013-08-01 01:02:00,78.3,73.8,30.01,ENE,77,2.0,3.0,86,0.00,,,0.00,meteohub,2013-08-01 05:02:00,
2013-08-01 01:07:00,78.4,73.9,30.01,ENE,77,0.0,3.0,86,0.00,,,0.00,meteohub,2013-08-01 05:07:00,
2013-08-01 01:12:00,78.6,73.8,30.01,ENE,78,0.0,3.0,85,0.00,,,0.00,meteohub,2013-08-01 05:12:00,
2013-08-01 01:17:00,79.0,74.5,30.01,ENE,78,0.0,3.0,86,0.00,,,0.00,meteohub,2013-08-01 05:17:00,
2013-08-01 01:23:00,79.0,74.5,30.00,ENE,78,0.0,3.0,86,0.00,,,0.00,meteohub,2013-08-01 05:23:00,
2013-08-01 01:29:00,79.2,74.3,30.00,ENE,78,0.0,2.0,85,0.00,,,0.00,meteohub,2013-08-01 05:29:00,
2013-08-01 01:35:00,79.2,74.3,30.00,East,86,0.0,3.0,85,0.00,,,0.00,meteohub,2013-08-01 05:35:00,
2013-08-01 01:41:00,79.3,74.5,30.00,East,92,3.0,5.0,85,0.00,,,0.00,meteohub,2013-08-01 05:41:00,
2013-08-01 01:47:00,79.3,74.1,29.99,SE,134,0.0,5.0,84,0.00,,,0.00,meteohub,2013-08-01 05:47:00,
2013-08-01 01:52:00,79.3,74.1,29.99,SE,134,1.0,5.0,84,0.00,,,0.00,meteohub,2013-08-01 05:52:00,
2013-08-01 01:57:00,79.5,74.3,29.99,SE,129,1.0,4.0,84,0.00,,,0.00,meteohub,2013-08-01 05:57:00,
2013-08-01 02:02:00,79.7,74.5,29.99,SE,129,1.0,3.0,84,0.00,,,0.00,meteohub,2013-08-01 06:02:00,
2013-08-01 02:08:00,79.9,74.7,29.99,SSE,155,0.0,3.0,84,0.00,,,0.00,meteohub,2013-08-01 06:08:00,
2013-08-01 02:14:00,79.9,74.7,29.99,SSE,153,0.0,3.0,84,0.00,,,0.00,meteohub,2013-08-01 06:14:00,
2013-08-01 02:21:00,79.9,74.7,29.98,SSE,153,1.0,2.0,84,0.00,,,0.00,meteohub,2013-08-01 06:21:00,
2013-08-01 02:27:00,79.9,75.0,29.98,SSE,153,0.0,3.0,85,0.00,,,0.00,meteohub,2013-08-01 06:27:00,
2013-08-01 02:32:00,79.9,75.0,29.98,SSE,153,0.0,3.0,85,0.00,,,0.00,meteohub,2013-08-01 06:32:00,
2013-08-01 02:37:00,79.9,75.0,29.97,SE,128,0.0,4.0,85,0.00,,,0.00,meteohub,2013-08-01 06:37:00,
2013-08-01 02:42:00,79.9,75.0,29.97,SE,138,0.0,5.0,85,0.00,,,0.00,meteohub,2013-08-01 06:42:00,
2013-08-01 02:48:00,79.9,75.0,29.97,ESE,115,2.0,5.0,85,0.00,,,0.00,meteohub,2013-08-01 06:48:00,
2013-08-01 02:54:00,80.1,75.2,29.97,ESE,116,1.0,5.0,85,0.00,,,0.00,meteohub,2013-08-01 06:54:00,
2013-08-01 03:00:00,80.2,75.4,29.97,ESE,120,0.0,5.0,85,0.00,,,0.00,meteohub,2013-08-01 07:00:00,
2013-08-01 03:06:00,80.2,75.4,29.97,SE,134,2.0,4.0,85,0.00,,,0.00,meteohub,2013-08-01 07:06:00,
2013-08-01 03:12:00,80.2,75.4,29.97,ESE,115,3.0,4.0,85,0.00,,,0.00,meteohub,2013-08-01 07:12:00,
2013-08-01 03:17:00,80.2,75.4,29.97,South,179,0.0,6.0,85,0.00,,,0.00,meteohub,2013-08-01 07:17:00,
2013-08-01 03:22:00,80.2,75.4,29.97,South,179,2.0,6.0,85,0.00,,,0.00,meteohub,2013-08-01 07:22:00,
2013-08-01 03:27:00,80.2,75.4,29.96,ESE,123,0.0,4.0,85,0.00,,,0.00,meteohub,2013-08-01 07:27:00,
2013-08-01 03:33:00,80.2,75.4,29.96,ESE,123,0.0,5.0,85,0.00,,,0.00,meteohub,2013-08-01 07:33:00,
2013-08-01 03:39:00,80.2,75.4,29.96,ESE,123,0.0,5.0,85,0.00,,,0.00,meteohub,2013-08-01 07:39:00,
2013-08-01 03:45:00,80.2,75.4,29.96,SE,124,0.0,3.0,85,0.00,,,0.00,meteohub,2013-08-01 07:45:00,
2013-08-01 03:51:00,80.2,75.4,29.96,SE,124,1.0,3.0,85,0.00,,,0.00,meteohub,2013-08-01 07:51:00,
2013-08-01 03:57:00,80.2,75.4,29.96,SE,124,1.0,3.0,85,0.00,,,0.00,meteohub,2013-08-01 07:57:00,
2013-08-01 04:02:00,80.2,75.4,29.96,SE,124,0.0,3.0,85,0.00,,,0.00,meteohub,2013-08-01 08:02:00,
2013-08-01 04:07:00,80.2,75.4,29.95,SE,124,0.0,4.0,85,0.00,,,0.00,meteohub,2013-08-01 08:07:00,
2013-08-01 04:12:00,80.2,75.4,29.95,SE,126,1.0,4.0,85,0.00,,,0.00,meteohub,2013-08-01 08:12:00,
2013-08-01 04:19:00,80.1,75.2,29.95,ESE,123,0.0,4.0,85,0.00,,,0.00,meteohub,2013-08-01 08:19:00,
2013-08-01 04:25:00,80.1,75.2,29.95,ESE,123,1.0,4.0,85,0.00,,,0.00,meteohub,2013-08-01 08:25:00,
2013-08-01 04:31:00,80.1,75.6,29.95,ESE,123,1.0,3.0,86,0.00,,,0.00,meteohub,2013-08-01 08:31:00,
2013-08-01 04:37:00,80.2,75.4,29.95,ESE,123,2.0,3.0,85,0.00,,,0.00,meteohub,2013-08-01 08:37:00,
2013-08-01 04:42:00,80.2,75.4,29.95,ESE,123,1.0,2.0,85,0.00,,,0.00,meteohub,2013-08-01 08:42:00,
2013-08-01 04:47:00,80.2,75.4,29.95,ESE,123,0.0,2.0,85,0.00,,,0.00,meteohub,2013-08-01 08:47:00,
2013-08-01 04:52:00,80.1,75.2,29.95,ESE,123,0.0,2.0,85,0.00,,,0.00,meteohub,2013-08-01 08:52:00,
2013-08-01 04:57:00,80.1,75.2,29.95,ESE,123,0.0,2.0,85,0.00,,,0.00,meteohub,2013-08-01 08:57:00,
2013-08-01 05:02:00,80.1,75.6,29.95,ESE,123,0.0,1.0,86,0.00,,,0.00,meteohub,2013-08-01 09:02:00,
2013-08-01 05:07:00,80.2,75.4,29.95,ESE,123,0.0,1.0,85,0.00,,,0.00,meteohub,2013-08-01 09:07:00,
2013-08-01 05:13:00,80.1,75.2,29.95,ESE,123,0.0,2.0,85,0.00,,,0.00,meteohub,2013-08-01 09:13:00,
2013-08-01 05:20:00,80.2,75.4,29.96,ESE,123,0.0,2.0,85,0.00,,,0.00,meteohub,2013-08-01 09:20:00,
2013-08-01 05:26:00,80.1,75.2,29.96,ESE,123,0.0,3.0,85,0.00,,,0.00,meteohub,2013-08-01 09:26:00,
2013-08-01 05:32:00,80.1,75.6,29.96,ESE,123,0.0,3.0,86,0.00,,,0.00,meteohub,2013-08-01 09:32:00,
2013-08-01 05:37:00,80.1,75.6,29.96,ESE,123,0.0,1.0,86,0.00,,,0.00,meteohub,2013-08-01 09:37:00,
2013-08-01 05:42:00,79.9,75.4,29.96,ESE,123,0.0,1.0,86,0.00,,,0.00,meteohub,2013-08-01 09:42:00,
2013-08-01 05:48:00,79.9,75.4,29.96,ESE,123,0.0,1.0,86,0.00,,,0.00,meteohub,2013-08-01 09:48:00,
2013-08-01 05:54:00,79.9,75.4,29.96,ESE,123,0.0,1.0,86,0.00,,,0.00,meteohub,2013-08-01 09:54:00,
2013-08-01 06:01:00,79.7,75.2,29.96,ESE,123,0.0,1.0,86,0.00,,,0.00,meteohub,2013-08-01 10:01:00,
2013-08-01 06:07:00,79.9,75.7,29.97,ESE,123,0.0,1.0,87,0.00,,,0.00,meteohub,2013-08-01 10:07:00,
2013-08-01 06:12:00,79.9,75.4,29.97,ESE,123,0.0,2.0,86,0.00,,,0.00,meteohub,2013-08-01 10:12:00,
2013-08-01 06:17:00,79.9,75.7,29.97,ESE,123,0.0,2.0,87,0.00,,,0.00,meteohub,2013-08-01 10:17:00,
2013-08-01 06:23:00,79.9,75.7,29.97,ESE,123,0.0,1.0,87,0.00,,,0.00,meteohub,2013-08-01 10:23:00,
2013-08-01 06:29:00,79.9,75.7,29.97,ESE,123,2.0,2.0,87,0.00,,,0.00,meteohub,2013-08-01 10:29:00,
2013-08-01 06:35:00,79.9,75.4,29.97,SE,128,0.0,4.0,86,0.00,,,0.00,meteohub,2013-08-01 10:35:00,
2013-08-01 06:41:00,80.1,75.6,29.98,SE,128,0.0,3.0,86,0.00,,,0.00,meteohub,2013-08-01 10:41:00,
2013-08-01 06:47:00,79.9,75.4,29.98,SE,128,0.0,3.0,86,0.00,,,0.00,meteohub,2013-08-01 10:47:00,
2013-08-01 06:52:00,79.9,75.4,29.98,SE,128,0.0,2.0,86,0.00,,,0.00,meteohub,2013-08-01 10:52:00,
2013-08-01 06:57:00,79.9,75.7,29.98,SE,128,0.0,2.0,87,0.00,,,0.00,meteohub,2013-08-01 10:57:00,
2013-08-01 07:02:00,80.1,75.6,29.98,SE,128,0.0,1.0,86,0.00,,,0.00,meteohub,2013-08-01 11:02:00,
2013-08-01 07:07:00,79.9,75.4,29.99,SE,128,0.0,2.0,86,0.00,,,0.00,meteohub,2013-08-01 11:07:00,
2013-08-01 07:12:00,79.7,75.6,29.99,SE,128,0.0,3.0,87,0.00,,,0.00,meteohub,2013-08-01 11:12:00,
2013-08-01 07:18:00,79.5,75.4,29.99,SE,128,0.0,3.0,87,0.00,,,0.00,meteohub,2013-08-01 11:18:00,
2013-08-01 07:27:00,79.3,75.6,29.99,SE,128,0.0,2.0,88,0.00,,,0.00,meteohub,2013-08-01 11:27:00,
2013-08-01 07:32:00,79.5,75.6,29.99,SE,128,0.0,2.0,88,0.00,,,0.00,meteohub,2013-08-01 11:32:00,
2013-08-01 07:37:00,79.9,75.9,29.99,South,190,0.0,2.0,88,0.00,,,0.00,meteohub,2013-08-01 11:37:00,
2013-08-01 07:44:00,80.2,76.1,29.99,SE,136,0.0,5.0,87,0.00,,,0.00,meteohub,2013-08-01 11:44:00,
2013-08-01 07:50:00,80.4,76.1,29.99,SE,136,0.0,5.0,87,0.00,,,0.00,meteohub,2013-08-01 11:50:00,
2013-08-01 07:56:00,80.6,76.1,29.99,SE,136,0.0,3.0,86,0.00,,,0.00,meteohub,2013-08-01 11:56:00,
2013-08-01 08:02:00,80.8,76.3,29.99,South,180,0.0,3.0,86,0.00,,,0.00,meteohub,2013-08-01 12:02:00,
2013-08-01 08:07:00,81.0,76.5,29.99,South,180,2.0,3.0,86,0.00,,,0.00,meteohub,2013-08-01 12:07:00,
2013-08-01 08:15:00,81.0,76.5,29.99,South,180,0.0,3.0,86,0.00,,,0.00,meteohub,2013-08-01 12:15:00,
2013-08-01 08:21:00,81.1,76.5,29.99,South,180,0.0,3.0,86,0.00,,,0.00,meteohub,2013-08-01 12:21:00,
2013-08-01 08:28:00,81.3,76.6,30.00,South,180,3.0,3.0,86,0.00,,,0.00,meteohub,2013-08-01 12:28:00,
2013-08-01 08:34:00,81.7,76.6,30.00,South,175,2.0,4.0,85,0.00,,,0.00,meteohub,2013-08-01 12:34:00,
2013-08-01 08:40:00,81.9,76.5,30.00,ESE,123,1.0,5.0,84,0.00,,,0.00,meteohub,2013-08-01 12:40:00,
2013-08-01 08:46:00,82.0,76.6,30.00,SSW,202,1.0,5.0,84,0.00,,,0.00,meteohub,2013-08-01 12:46:00,
2013-08-01 08:52:00,82.2,76.8,30.00,SE,142,1.0,5.0,84,0.00,,,0.00,meteohub,2013-08-01 12:52:00,
2013-08-01 09:00:00,82.6,76.8,30.00,South,185,2.0,5.0,83,0.00,,,0.00,meteohub,2013-08-01 13:00:00,
2013-08-01 09:06:00,83.1,77.0,30.00,SSE,159,4.0,5.0,82,0.00,,,0.00,meteohub,2013-08-01 13:06:00,
2013-08-01 09:12:00,83.5,77.0,30.00,WSW,251,3.0,5.0,81,0.00,,,0.00,meteohub,2013-08-01 13:12:00,
2013-08-01 09:17:00,83.5,77.0,30.00,SE,143,4.0,6.0,81,0.00,,,0.00,meteohub,2013-08-01 13:17:00,
2013-08-01 09:22:00,83.8,77.0,30.00,SW,236,5.0,6.0,80,0.00,,,0.00,meteohub,2013-08-01 13:22:00,
2013-08-01 09:28:00,84.4,77.2,30.00,SSE,164,3.0,8.0,79,0.00,,,0.00,meteohub,2013-08-01 13:28:00,
2013-08-01 09:34:00,84.7,77.2,29.99,SSE,150,3.0,8.0,78,0.00,,,0.00,meteohub,2013-08-01 13:34:00,
2013-08-01 09:41:00,85.1,77.5,29.99,SSE,161,2.0,6.0,78,0.00,,,0.00,meteohub,2013-08-01 13:41:00,
2013-08-01 09:47:00,85.6,76.5,30.00,SSW,195,3.0,5.0,74,0.00,,,0.00,meteohub,2013-08-01 13:47:00,
2013-08-01 09:52:00,85.6,76.5,30.00,SSE,150,2.0,6.0,74,0.00,,,0.00,meteohub,2013-08-01 13:52:00,
2013-08-01 09:57:00,86.2,76.5,30.00,SE,127,3.0,6.0,73,0.00,,,0.00,meteohub,2013-08-01 13:57:00,
2013-08-01 10:02:00,86.5,75.9,30.00,SW,217,4.0,6.0,71,0.00,,,0.00,meteohub,2013-08-01 14:02:00,
2013-08-01 10:08:00,86.7,76.1,30.01,South,171,2.0,8.0,71,0.00,,,0.00,meteohub,2013-08-01 14:08:00,
2013-08-01 10:14:00,87.3,75.9,30.01,SSW,209,6.0,8.0,69,0.00,,,0.00,meteohub,2013-08-01 14:14:00,
2013-08-01 10:21:00,87.1,76.1,30.01,ESE,120,4.0,7.0,70,0.00,,,0.00,meteohub,2013-08-01 14:21:00,
2013-08-01 10:27:00,87.6,75.4,30.01,South,171,4.0,7.0,67,0.00,,,0.00,meteohub,2013-08-01 14:27:00,
2013-08-01 10:32:00,87.6,75.7,30.01,SSE,161,0.0,7.0,68,0.00,,,0.00,meteohub,2013-08-01 14:32:00,
2013-08-01 10:39:00,88.0,76.5,30.01,ENE,65,2.0,7.0,69,0.00,,,0.00,meteohub,2013-08-01 14:39:00,
2013-08-01 10:45:00,87.8,75.9,30.01,SE,125,1.0,7.0,68,0.00,,,0.00,meteohub,2013-08-01 14:45:00,
2013-08-01 10:52:00,88.0,76.5,30.01,East,90,1.0,8.0,69,0.00,,,0.00,meteohub,2013-08-01 14:52:00,
2013-08-01 10:57:00,88.0,76.1,30.01,East,91,2.0,8.0,68,0.00,,,0.00,meteohub,2013-08-01 14:57:00,
2013-08-01 11:02:00,87.6,75.4,30.01,SE,127,3.0,8.0,67,0.00,,,0.00,meteohub,2013-08-01 15:02:00,
2013-08-01 11:08:00,87.6,75.7,30.01,ENE,78,3.0,7.0,68,0.00,,,0.00,meteohub,2013-08-01 15:08:00,
2013-08-01 11:14:00,88.3,76.5,30.01,ESE,119,2.0,7.0,68,0.00,,,0.00,meteohub,2013-08-01 15:14:00,
2013-08-01 11:20:00,88.9,75.6,30.00,ESE,122,2.0,8.0,65,0.00,,,0.00,meteohub,2013-08-01 15:20:00,
2013-08-01 11:26:00,88.9,76.1,30.00,NE,43,5.0,8.0,66,0.00,,,0.00,meteohub,2013-08-01 15:26:00,
2013-08-01 11:32:00,88.5,76.1,30.00,ENE,64,2.0,8.0,67,0.00,,,0.00,meteohub,2013-08-01 15:32:00,
2013-08-01 11:37:00,88.2,75.7,30.00,East,85,1.0,6.0,67,0.00,,,0.00,meteohub,2013-08-01 15:37:00,
2013-08-01 11:42:00,88.2,75.7,30.00,East,90,1.0,6.0,67,0.00,,,0.00,meteohub,2013-08-01 15:42:00,
2013-08-01 11:47:00,88.5,76.1,30.00,East,89,2.0,6.0,67,0.00,,,0.00,meteohub,2013-08-01 15:47:00,
2013-08-01 11:52:00,88.5,76.1,30.01,ESE,112,0.0,7.0,67,0.00,,,0.00,meteohub,2013-08-01 15:52:00,
2013-08-01 11:57:00,88.5,76.6,30.00,ENE,58,1.0,7.0,68,0.00,,,0.00,meteohub,2013-08-01 15:57:00,
2013-08-01 12:02:00,88.7,76.8,30.00,SSE,167,2.0,7.0,68,0.00,,,0.00,meteohub,2013-08-01 16:02:00,
2013-08-01 12:08:00,89.2,77.7,29.99,SE,134,5.0,6.0,69,0.00,,,0.00,meteohub,2013-08-01 16:08:00,
2013-08-01 12:14:00,89.4,77.0,29.99,SE,142,3.0,6.0,67,0.00,,,0.00,meteohub,2013-08-01 16:14:00,
2013-08-01 12:22:00,89.2,76.8,29.99,South,171,3.0,8.0,67,0.00,,,0.00,meteohub,2013-08-01 16:22:00,
2013-08-01 12:27:00,88.9,76.5,29.99,East,92,1.0,8.0,67,0.00,,,0.00,meteohub,2013-08-01 16:27:00,
2013-08-01 12:33:00,88.3,76.8,29.99,ESE,122,2.0,8.0,69,0.00,,,0.00,meteohub,2013-08-01 16:33:00,
2013-08-01 12:39:00,87.1,78.6,29.99,SSW,213,2.0,8.0,76,0.01,,,0.00,meteohub,2013-08-01 16:39:00,
2013-08-01 12:45:00,81.3,73.4,30.00,WSW,240,7.0,13.0,77,0.08,,,0.08,meteohub,2013-08-01 16:45:00,
2013-08-01 12:51:00,77.5,71.6,30.00,West,264,2.0,22.0,82,0.24,,,0.24,meteohub,2013-08-01 16:51:00,
2013-08-01 12:57:00,75.9,72.1,30.00,WNW,291,5.0,22.0,88,0.39,,,0.39,meteohub,2013-08-01 16:57:00,
2013-08-01 13:04:00,74.7,70.2,29.99,West,264,2.0,22.0,86,0.52,,,0.52,meteohub,2013-08-01 17:04:00,
2013-08-01 13:11:00,74.5,71.4,29.99,West,264,2.0,11.0,90,0.64,,,0.64,meteohub,2013-08-01 17:11:00,
2013-08-01 13:17:00,74.3,71.4,29.99,West,265,0.0,7.0,91,0.65,,,0.65,meteohub,2013-08-01 17:17:00,
2013-08-01 13:22:00,74.3,71.8,29.99,West,265,0.0,4.0,92,0.66,,,0.66,meteohub,2013-08-01 17:22:00,
2013-08-01 13:29:00,74.7,72.5,30.00,West,265,0.0,4.0,93,0.66,,,0.66,meteohub,2013-08-01 17:29:00,
2013-08-01 13:35:00,75.0,73.2,30.00,West,265,0.0,2.0,94,0.65,,,0.66,meteohub,2013-08-01 17:35:00,
2013-08-01 13:42:00,75.6,73.9,30.00,SSE,159,2.0,2.0,95,0.62,,,0.66,meteohub,2013-08-01 17:42:00,
2013-08-01 13:47:00,75.4,73.2,29.99,West,266,1.0,5.0,93,0.50,,,0.66,meteohub,2013-08-01 17:47:00,
2013-08-01 13:54:00,75.6,73.4,29.99,SW,225,0.0,5.0,93,0.35,,,0.67,meteohub,2013-08-01 17:54:00,
2013-08-01 14:01:00,75.6,73.8,29.98,SW,225,0.0,5.0,94,0.18,,,0.72,meteohub,2013-08-01 18:01:00,
2013-08-01 14:07:00,75.7,73.9,29.98,SW,225,0.0,2.0,94,0.10,,,0.72,meteohub,2013-08-01 18:07:00,
2013-08-01 14:12:00,75.6,73.8,29.98,SW,225,0.0,3.0,94,0.07,,,0.72,meteohub,2013-08-01 18:12:00,
2013-08-01 14:20:00,75.9,74.3,29.97,SW,225,1.0,3.0,95,0.06,,,0.72,meteohub,2013-08-01 18:20:00,
2013-08-01 14:27:00,76.3,74.7,29.97,SW,225,0.0,3.0,95,0.06,,,0.72,meteohub,2013-08-01 18:27:00,
2013-08-01 14:32:00,76.5,75.2,29.97,SW,225,0.0,3.0,96,0.06,,,0.72,meteohub,2013-08-01 18:32:00,
2013-08-01 14:38:00,76.5,75.2,29.97,SW,225,0.0,3.0,96,0.06,,,0.72,meteohub,2013-08-01 18:38:00,
2013-08-01 14:44:00,77.2,75.9,29.97,SW,225,0.0,2.0,96,0.06,,,0.72,meteohub,2013-08-01 18:44:00,
2013-08-01 14:51:00,77.5,75.9,29.97,SW,225,2.0,2.0,95,0.05,,,0.72,meteohub,2013-08-01 18:51:00,
2013-08-01 14:57:00,78.6,77.4,29.96,SW,225,1.0,3.0,96,0.02,,,0.72,meteohub,2013-08-01 18:57:00,
2013-08-01 15:02:00,79.3,78.1,29.96,SW,225,0.0,3.0,96,0.00,,,0.72,meteohub,2013-08-01 19:02:00,
2013-08-01 15:09:00,79.5,77.7,29.96,SW,225,0.0,3.0,94,0.00,,,0.72,meteohub,2013-08-01 19:09:00,
2013-08-01 15:15:00,80.1,77.9,29.96,SW,225,3.0,3.0,93,0.00,,,0.72,meteohub,2013-08-01 19:15:00,
2013-08-01 15:22:00,81.0,78.4,29.96,SW,234,1.0,3.0,92,0.00,,,0.72,meteohub,2013-08-01 19:22:00,
2013-08-01 15:28:00,82.2,79.0,29.96,SW,236,3.0,5.0,90,0.00,,,0.72,meteohub,2013-08-01 19:28:00,
2013-08-01 15:35:00,83.7,79.0,29.95,WNW,290,2.0,5.0,86,0.00,,,0.72,meteohub,2013-08-01 19:35:00,
2013-08-01 15:41:00,84.0,77.9,29.95,WSW,251,0.0,5.0,82,0.00,,,0.72,meteohub,2013-08-01 19:41:00,
2013-08-01 15:48:00,84.4,78.6,29.95,West,267,1.0,6.0,83,0.00,,,0.72,meteohub,2013-08-01 19:48:00,
2013-08-01 15:54:00,84.6,78.4,29.95,West,267,3.0,6.0,82,0.00,,,0.72,meteohub,2013-08-01 19:54:00,
2013-08-01 16:00:00,84.7,78.3,29.94,West,267,2.0,3.0,81,0.00,,,0.72,meteohub,2013-08-01 20:00:00,
2013-08-01 16:06:00,84.9,78.1,29.94,WSW,240,3.0,5.0,80,0.00,,,0.72,meteohub,2013-08-01 20:06:00,
2013-08-01 16:12:00,84.6,78.1,29.94,West,267,2.0,7.0,81,0.00,,,0.72,meteohub,2013-08-01 20:12:00,
2013-08-01 16:17:00,84.4,77.9,29.94,WSW,254,4.0,7.0,81,0.00,,,0.72,meteohub,2013-08-01 20:17:00,
2013-08-01 16:25:00,83.8,77.7,29.94,West,271,3.0,7.0,82,0.00,,,0.72,meteohub,2013-08-01 20:25:00,
2013-08-01 16:31:00,83.8,77.4,29.94,West,273,4.0,5.0,81,0.00,,,0.72,meteohub,2013-08-01 20:31:00,
2013-08-01 16:37:00,83.8,77.0,29.94,West,280,3.0,5.0,80,0.00,,,0.72,meteohub,2013-08-01 20:37:00,
2013-08-01 16:44:00,84.2,77.4,29.93,WNW,295,2.0,5.0,80,0.00,,,0.72,meteohub,2013-08-01 20:44:00,
2013-08-01 16:47:00,84.4,75.9,29.93,WSW,250,5.0,5.0,76,0.00,,,0.72,meteohub,2013-08-01 20:47:00,
2013-08-01 16:53:00,84.7,75.9,29.94,WSW,242,2.0,8.0,75,0.00,,,0.72,meteohub,2013-08-01 20:53:00,
2013-08-01 17:00:00,85.1,77.0,29.93,WSW,249,0.0,8.0,77,0.00,,,0.72,meteohub,2013-08-01 21:00:00,
2013-08-01 17:06:00,85.3,76.8,29.93,West,264,2.0,7.0,76,0.00,,,0.72,meteohub,2013-08-01 21:06:00,
2013-08-01 17:11:00,85.1,76.3,29.93,WSW,240,2.0,7.0,75,0.00,,,0.72,meteohub,2013-08-01 21:11:00,
2013-08-01 17:17:00,85.5,76.6,29.93,WSW,253,3.0,7.0,75,0.00,,,0.72,meteohub,2013-08-01 21:17:00,
2013-08-01 17:21:00,85.5,76.3,29.93,WSW,254,1.0,7.0,74,0.00,,,0.72,meteohub,2013-08-01 21:21:00,
2013-08-01 17:27:00,85.5,76.6,29.93,WNW,292,1.0,8.0,75,0.00,,,0.72,meteohub,2013-08-01 21:27:00,
2013-08-01 17:34:00,85.6,75.9,29.93,WNW,298,4.0,8.0,73,0.00,,,0.72,meteohub,2013-08-01 21:34:00,
2013-08-01 17:40:00,85.8,77.4,29.93,WSW,251,3.0,8.0,76,0.00,,,0.72,meteohub,2013-08-01 21:40:00,
2013-08-01 17:46:00,86.2,77.7,29.93,NNW,327,1.0,7.0,76,0.00,,,0.72,meteohub,2013-08-01 21:46:00,
2013-08-01 17:52:00,86.5,77.2,29.93,WNW,283,1.0,7.0,74,0.00,,,0.72,meteohub,2013-08-01 21:52:00,
2013-08-01 17:57:00,86.7,77.9,29.93,SW,229,1.0,7.0,75,0.00,,,0.72,meteohub,2013-08-01 21:57:00,
2013-08-01 18:04:00,87.4,78.1,29.93,WSW,240,0.0,7.0,74,0.00,,,0.72,meteohub,2013-08-01 22:04:00,
2013-08-01 18:10:00,88.2,77.9,29.93,ENE,71,1.0,7.0,72,0.00,,,0.72,meteohub,2013-08-01 22:10:00,
2013-08-01 18:16:00,88.0,77.9,29.93,West,261,1.0,7.0,72,0.00,,,0.72,meteohub,2013-08-01 22:16:00,
2013-08-01 18:22:00,88.5,78.3,29.93,SW,223,1.0,7.0,72,0.00,,,0.72,meteohub,2013-08-01 22:22:00,
2013-08-01 18:29:00,89.1,78.4,29.93,WSW,242,0.0,7.0,71,0.00,,,0.72,meteohub,2013-08-01 22:29:00,
2013-08-01 18:35:00,88.3,77.4,29.93,West,275,1.0,6.0,70,0.00,,,0.72,meteohub,2013-08-01 22:35:00,
2013-08-01 18:41:00,88.3,78.1,29.93,SW,215,0.0,6.0,72,0.00,,,0.72,meteohub,2013-08-01 22:41:00,
2013-08-01 18:47:00,88.2,77.5,29.93,WSW,254,2.0,6.0,71,0.00,,,0.72,meteohub,2013-08-01 22:47:00,
2013-08-01 18:52:00,88.2,77.9,29.93,East,88,0.0,5.0,72,0.00,,,0.72,meteohub,2013-08-01 22:52:00,
2013-08-01 18:57:00,88.2,77.5,29.93,WNW,294,1.0,5.0,71,0.00,,,0.72,meteohub,2013-08-01 22:57:00,
2013-08-01 19:02:00,88.0,77.4,29.93,WNW,294,1.0,5.0,71,0.00,,,0.72,meteohub,2013-08-01 23:02:00,
2013-08-01 19:09:00,87.1,76.5,29.94,WSW,241,0.0,3.0,71,0.00,,,0.72,meteohub,2013-08-01 23:09:00,
2013-08-01 19:15:00,86.7,76.6,29.94,WSW,241,0.0,3.0,72,0.00,,,0.72,meteohub,2013-08-01 23:15:00,
2013-08-01 19:21:00,86.7,76.6,29.94,WSW,240,0.0,3.0,72,0.00,,,0.72,meteohub,2013-08-01 23:21:00,
2013-08-01 19:27:00,86.5,76.5,29.94,WSW,240,0.0,3.0,72,0.00,,,0.72,meteohub,2013-08-01 23:27:00,
2013-08-01 19:33:00,86.4,76.6,29.94,WSW,240,0.0,3.0,73,0.00,,,0.72,meteohub,2013-08-01 23:33:00,
2013-08-01 19:39:00,86.0,76.8,29.94,WSW,240,0.0,2.0,74,0.00,,,0.72,meteohub,2013-08-01 23:39:00,
2013-08-01 19:55:00,85.3,76.5,29.95,WSW,240,0.0,1.0,75,0.00,,,0.72,meteohub,2013-08-01 23:55:00,
2013-08-01 20:02:00,84.9,76.5,29.94,WSW,240,0.0,2.0,76,0.00,,,0.72,meteohub,2013-08-02 00:02:00,
2013-08-01 20:08:00,84.7,76.6,29.94,WSW,240,0.0,2.0,77,0.00,,,0.72,meteohub,2013-08-02 00:08:00,
2013-08-01 20:14:00,84.4,76.5,29.94,WSW,240,0.0,1.0,77,0.00,,,0.72,meteohub,2013-08-02 00:14:00,
2013-08-01 20:21:00,84.2,76.6,29.94,WSW,240,0.0,1.0,78,0.00,,,0.72,meteohub,2013-08-02 00:21:00,
2013-08-01 20:27:00,84.0,76.8,29.95,WSW,240,0.0,1.0,79,0.00,,,0.72,meteohub,2013-08-02 00:27:00,
2013-08-01 20:32:00,83.7,76.8,29.95,WSW,240,0.0,1.0,80,0.00,,,0.72,meteohub,2013-08-02 00:32:00,
2013-08-01 20:36:00,83.5,76.6,29.95,WSW,240,0.0,1.0,80,0.00,,,0.72,meteohub,2013-08-02 00:36:00,
2013-08-01 20:42:00,83.1,76.3,29.95,WSW,240,0.0,1.0,80,0.00,,,0.72,meteohub,2013-08-02 00:42:00,
2013-08-01 20:47:00,83.1,76.6,29.95,WSW,240,0.0,0.0,81,0.00,,,0.72,meteohub,2013-08-02 00:47:00,
2013-08-01 20:52:00,82.9,76.5,29.95,WSW,240,0.0,0.0,81,0.00,,,0.72,meteohub,2013-08-02 00:52:00,
2013-08-01 20:57:00,82.8,76.6,29.95,WSW,240,0.0,0.0,82,0.00,,,0.72,meteohub,2013-08-02 00:57:00,
2013-08-01 21:02:00,82.6,76.8,29.94,WSW,240,0.0,0.0,83,0.00,,,0.72,meteohub,2013-08-02 01:02:00,
2013-08-01 21:06:00,82.0,75.9,29.94,WSW,240,0.0,0.0,82,0.00,,,0.72,meteohub,2013-08-02 01:06:00,
2013-08-01 21:12:00,81.9,76.1,29.94,WSW,240,0.0,0.0,83,0.00,,,0.72,meteohub,2013-08-02 01:12:00,